Date String (YYYY-MM-DD hh:mm:ss) UTC,Instrument flags,Ambient pressure (hPa),Sample flow (lpm),Bypass flow (lpm),Sample temperature (°C),Ambient temperature (°C),ASC tube jacket temperature (°C),LED temperature (°C),Box temperature (°C),Sample RH (%),Span deviation,Mass concentration (μg/m³),Mass concentration (μg/m³),Mass concentration (μg/m³)
DateTimeUTC,F1_M11,P_M11,Q1_M11,Q2_M11,T1_M11,T2_M11,T3_M11,T4_M11,T5_M11,U1_M11,ZSPAN_M11,X0_M11,X2_M11,X1_M11
2023-02-04 07:00:00,,0824.9,5.02,0.00,24.1,22.5,00.0,33.1,25.7,03.5,0000.0,0002.65,0001.01,0000.40
2023-02-04 07:01:00,,0824.9,4.96,0.00,24.1,22.5,00.0,33.0,25.7,04.2,0000.0,0002.69,0001.02,0000.40
2023-02-04 07:02:00,,0824.9,5.00,0.00,24.1,22.5,00.0,33.0,25.7,04.8,0000.0,0002.60,0000.98,0000.39
2023-02-04 07:03:00,,0824.8,5.02,0.00,24.1,22.5,00.0,33.0,25.7,04.9,0000.0,0002.67,0001.00,0000.39
2023-02-04 07:04:00,,0824.8,5.01,0.00,24.1,22.5,00.0,33.0,25.7,04.1,0000.0,0002.57,0000.95,0000.38
2023-02-04 07:05:00,,0824.9,4.95,0.00,24.1,22.5,00.0,33.0,25.7,04.1,0000.0,0002.61,0000.96,0000.37
2023-02-04 07:06:00,,0824.9,5.02,0.00,24.1,22.4,00.0,33.0,25.6,03.8,0000.0,0002.59,0000.96,0000.37
2023-02-04 07:07:00,,0825.0,5.03,0.00,24.0,22.4,00.0,33.0,25.6,04.0,0000.0,0002.54,0000.95,0000.37
2023-02-04 07:08:00,,0825.0,5.00,0.00,24.0,22.4,00.0,33.0,25.6,04.7,0000.0,0002.54,0000.95,0000.38
2023-02-04 07:09:00,,0825.1,4.95,0.00,24.0,22.4,00.0,33.0,25.6,04.8,0000.0,0002.48,0000.95,0000.39
2023-02-04 07:10:00,,0825.1,5.03,0.00,24.0,22.4,00.0,32.9,25.6,04.9,0000.0,0003.60,0000.91,0000.40
2023-02-04 07:11:00,,0825.0,5.03,0.00,24.0,22.4,00.0,32.9,25.6,04.9,0000.0,0003.96,0000.91,0000.40
2023-02-04 07:12:00,,0825.0,4.97,0.00,24.0,22.4,00.0,32.9,25.6,04.9,0000.0,0003.92,0000.90,0000.40
2023-02-04 07:13:00,,0825.0,4.99,0.00,24.0,22.4,00.0,32.9,25.7,04.7,0000.0,0004.02,0000.93,0000.41
2023-02-04 07:14:00,,0825.0,5.02,0.00,24.0,22.5,00.0,32.9,25.7,04.9,0000.0,0004.02,0000.90,0000.41
2023-02-04 07:15:00,,0825.0,5.01,0.00,24.0,22.5,00.0,32.9,25.7,04.9,0000.0,0004.30,0000.98,0000.42
2023-02-04 07:16:00,,0824.9,4.95,0.00,24.0,22.5,00.0,32.9,25.7,04.9,0000.0,0004.30,0000.98,0000.43
2023-02-04 07:17:00,,0825.0,5.04,0.00,24.0,22.5,00.0,32.9,25.7,05.0,0000.0,0004.42,0001.06,0000.44
2023-02-04 07:18:00,,0824.9,5.02,0.00,24.0,22.6,00.0,32.9,25.7,05.5,0000.0,0004.46,0001.09,0000.45
2023-02-04 07:19:00,,0824.9,4.95,0.00,24.0,22.5,00.0,32.9,25.6,05.6,0000.0,0004.52,0001.11,0000.45
2023-02-04 07:20:00,,0824.9,5.04,0.00,24.0,22.5,00.0,32.9,25.7,05.3,0000.0,0004.59,0001.16,0000.46
2023-02-04 07:21:00,,0824.9,5.03,0.00,24.0,22.5,00.0,32.9,25.7,05.0,0000.0,0003.32,0001.21,0000.47
2023-02-04 07:22:00,,0824.9,4.96,0.00,24.0,22.5,00.0,32.9,25.7,04.9,0000.0,0002.84,0001.19,0000.47
2023-02-04 07:23:00,,0824.9,5.01,0.00,24.0,22.5,00.0,32.9,25.7,04.9,0000.0,0002.89,0001.18,0000.46
2023-02-04 07:24:00,,0824.9,5.04,0.00,24.0,22.5,00.0,32.9,25.7,05.2,0000.0,0002.72,0001.13,0000.46
2023-02-04 07:25:00,,0824.9,5.00,0.00,24.0,22.5,00.0,32.9,25.7,04.8,0000.0,0002.58,0001.14,0000.46
2023-02-04 07:26:00,,0824.9,4.96,0.00,24.0,22.5,00.0,32.9,25.6,05.0,0000.0,0002.50,0001.12,0000.46
2023-02-04 07:27:00,,0824.9,5.01,0.00,24.0,22.4,00.0,32.9,25.6,05.3,0000.0,0002.47,0001.11,0000.46
2023-02-04 07:28:00,,0824.9,5.04,0.00,24.0,22.4,00.0,32.9,25.6,05.0,0000.0,0002.41,0001.05,0000.45
2023-02-04 07:29:00,,0824.9,4.95,0.00,24.0,22.4,00.0,32.8,25.6,04.8,0000.0,0002.49,0001.06,0000.45
2023-02-04 07:30:00,,0824.9,5.02,0.00,24.0,22.4,00.0,32.8,25.6,04.7,0000.0,0002.43,0001.04,0000.45
2023-02-04 07:31:00,,0824.9,5.02,0.00,23.9,22.4,00.0,32.8,25.6,04.9,0000.0,0002.30,0000.97,0000.44
2023-02-04 07:32:00,,0824.8,4.99,0.00,23.9,22.4,00.0,32.8,25.6,04.9,0000.0,0002.23,0000.97,0000.44
2023-02-04 07:33:00,,0824.7,4.97,0.00,23.9,22.4,00.0,32.8,25.5,04.3,0000.0,0002.25,0001.00,0000.45
2023-02-04 07:34:00,,0824.8,5.03,0.00,23.9,22.4,00.0,32.8,25.6,04.1,0000.0,0002.22,0001.03,0000.46
2023-02-04 07:35:00,,0824.9,5.02,0.00,23.9,22.4,00.0,32.8,25.6,04.6,0000.0,0002.41,0001.09,0000.47
2023-02-04 07:36:00,,0824.8,4.95,0.00,23.9,22.4,00.0,32.8,25.5,05.8,0000.0,0002.48,0001.11,0000.47
2023-02-04 07:37:00,,0824.7,5.01,0.00,23.9,22.3,00.0,32.8,25.5,04.9,0000.0,0002.50,0001.09,0000.47
2023-02-04 07:38:00,,0824.6,5.03,0.00,23.9,22.3,00.0,32.8,25.5,04.0,0000.0,0002.48,0001.07,0000.46
2023-02-04 07:39:00,,0824.7,4.98,0.00,23.8,22.3,00.0,32.8,25.5,04.8,0000.0,0002.48,0001.06,0000.47
2023-02-04 07:40:00,,0824.6,4.97,0.00,23.8,22.3,00.0,32.8,25.5,04.9,0000.0,0002.52,0001.07,0000.46
2023-02-04 07:41:00,,0824.7,5.01,0.00,23.8,22.2,00.0,32.8,25.5,04.1,0000.0,0002.60,0001.10,0000.46
2023-02-04 07:42:00,,0824.5,5.02,0.00,23.8,22.2,00.0,32.7,25.5,03.9,0000.0,0002.76,0001.16,0000.46
2023-02-04 07:43:00,,0824.5,5.00,0.00,23.8,22.2,00.0,32.7,25.5,04.0,0000.0,0002.95,0001.20,0000.46
2023-02-04 07:44:00,,0824.6,4.97,0.00,23.8,22.2,00.0,32.7,25.4,03.7,0000.0,0003.05,0001.20,0000.45
2023-02-04 07:45:00,,0824.6,5.01,0.00,23.8,22.1,00.0,32.7,25.4,04.6,0000.0,0003.63,0001.22,0000.45
2023-02-04 07:46:00,,0824.6,5.03,0.00,23.7,22.1,00.0,32.7,25.3,04.8,0000.0,0004.05,0001.22,0000.44
2023-02-04 07:47:00,,0824.6,5.02,0.00,23.7,22.1,00.0,32.7,25.3,04.1,0000.0,0004.28,0001.26,0000.44
2023-02-04 07:48:00,,0824.5,4.95,0.00,23.7,22.1,00.0,32.7,25.3,04.3,0000.0,0004.32,0001.28,0000.43
2023-02-04 07:49:00,,0824.6,5.04,0.00,23.7,22.1,00.0,32.7,25.4,04.2,0000.0,0004.18,0001.27,0000.43
2023-02-04 07:50:00,,0824.7,5.04,0.00,23.7,22.2,00.0,32.7,25.4,03.9,0000.0,0004.20,0001.32,0000.44
2023-02-04 07:51:00,,0824.6,4.98,0.00,23.7,22.2,00.0,32.7,25.4,04.1,0000.0,0004.07,0001.29,0000.43
2023-02-04 07:52:00,,0824.6,4.98,0.00,23.7,22.2,00.0,32.6,25.4,04.0,0000.0,0004.03,0001.25,0000.44
2023-02-04 07:53:00,,0824.7,5.02,0.00,23.7,22.2,00.0,32.6,25.4,03.9,0000.0,0004.10,0001.26,0000.44
2023-02-04 07:54:00,,0824.6,5.02,0.00,23.7,22.2,00.0,32.6,25.3,04.0,0000.0,0003.97,0001.24,0000.44
2023-02-04 07:55:00,,0824.7,5.01,0.00,23.7,22.2,00.0,32.6,25.3,04.6,0000.0,0004.16,0001.23,0000.43
2023-02-04 07:56:00,,0824.6,4.95,0.00,23.7,22.2,00.0,32.6,25.3,04.8,0000.0,0004.61,0001.26,0000.43
2023-02-04 07:57:00,,0824.6,5.01,0.00,23.7,22.2,00.0,32.6,25.4,05.1,0000.0,0004.19,0001.30,0000.43
2023-02-04 07:58:00,,0824.6,5.03,0.00,23.7,22.2,00.0,32.6,25.4,05.6,0000.0,0004.04,0001.26,0000.44
2023-02-04 07:59:00,,0824.7,4.99,0.00,23.7,22.2,00.0,32.6,25.4,05.5,0000.0,0004.98,0001.36,0000.45
